[[{"header":{"parameterUnit":"m.s-1","parameterCategory":1,"la1":30.2991,"la2":30.254,"lo1":-89.0895,"lo2":-89.0444,"dy":0.0017,"dx":0.0017,"nx":28,"ny":28,"refTime":"2025-06-13T21:00:00:Z","depth":0,"parameterNumber":2,"parameterNumberName":"U-component_of_WINDS"},"data":[0,0,0,0,0,0,0,0,0,0,0,0,0,0,0,0,0,0,0,0,0,0,0,0,0,0,0,0,0,0,0,0,0,0,0,0,0,0,0,0,0,0,0,0,0,0,0,0,0,0,0,0,0,0,0,0,0,0,1.2482,1.2484,0,1.2682,1.2684,1.2686,1.2755,1.2754,1.2754,1.2753,1.296,1.2966,1.2973,0,0,0,0,0,0,0,0,0,0,0,0,0,1.2161,1.2167,1.2481,1.2484,1.2486,1.2681,1.2684,1.2687,1.2755,1.2754,1.2753,1.2753,1.2958,1.2966,1.2973,0,0,0,0,0,0,0,0,0,0,0,0,0,1.2325,1.2169,1.2481,1.2544,1.2552,1.2681,1.2684,1.2687,1.2756,1.2754,1.2753,1.2752,1.2956,1.2965,1.2974,1.3056,0,0,1.3003,1.3007,0,0,0,0,0,0,0,0,1.2315,1.2337,1.2532,1.254,1.2549,1.2692,1.2647,1.2811,1.2756,1.2678,1.2753,1.2751,1.2872,1.2888,1.2929,1.3066,1.3074,1.3004,1.3009,1.3013,1.3016,0,0,0,0,0,0,0,1.2304,1.2328,1.2561,1.2535,1.2545,1.2563,1.2585,1.2679,1.278,1.2685,1.269,1.2713,1.2877,1.2919,1.2934,1.3078,1.3003,1.3012,1.3018,1.3021,1.3293,1.3295,0,0,0,0,0,0,1.2282,1.2318,1.2554,1.2567,1.2427,1.257,1.2595,1.2647,1.2779,1.2797,1.2714,1.2715,1.2904,1.2923,1.2942,1.3047,1.3013,1.3022,1.3028,1.3292,1.3294,1.3295,0,0,0,0,0,0,1.2275,1.2302,1.2546,1.2444,1.2477,1.2577,1.2636,1.2652,1.2695,1.28,1.2819,1.2739,1.2904,1.2928,1.3027,1.3055,1.3026,1.3035,1.329,1.3292,1.3294,1.3257,0,0,0,0,0,0,1.2265,1.2299,1.233,1.2444,1.2482,1.2627,1.2637,1.2657,1.2711,1.2715,1.2829,1.2847,1.2905,1.3013,1.3036,1.3067,1.3042,1.3288,1.3291,1.3294,1.3256,1.3258,1.3259,0,0,0,0,0,1.2253,1.2312,1.2332,1.236,1.2523,1.2629,1.265,1.2715,1.2712,1.2745,1.2813,1.2843,1.3048,1.3022,1.305,1.3084,1.3286,1.329,1.3293,1.3255,1.3257,1.3259,0,0,0,0,0,0,1.2199,1.2328,1.2351,1.2448,1.2527,1.264,1.2683,1.2715,1.2796,1.2797,1.2875,1.29,1.2993,1.3048,1.3017,1.317,1.3169,1.3178,1.3131,1.3133,1.3135,1.312,1.305,0,0,0,0,0,1.2198,1.2273,1.2382,1.2457,1.2495,1.2582,1.2631,1.2674,1.2759,1.2793,1.2868,1.295,1.3033,1.3086,1.3169,1.3264,1.3291,1.3302,1.3303,1.3304,1.3311,1.3367,1.3373,1.3307,1.3307,1.3307,0,0,1.2198,1.2277,1.232,1.2448,1.2514,1.259,1.261,1.269,1.2747,1.2805,1.2903,1.2961,1.3058,1.3156,1.3203,1.3205,1.3335,1.3308,1.3308,1.3315,1.3371,1.3377,1.3383,1.3309,1.3309,1.3309,0,0,1.2236,1.2303,1.2373,1.2439,1.2539,1.2597,1.2613,1.2723,1.2763,1.2862,1.2908,1.2978,1.3119,1.3187,1.324,1.3304,1.3335,1.3329,1.3337,1.339,1.3396,1.3401,1.3424,1.3432,1.3336,1.3335,1.3335,0,1.2222,1.2338,1.2406,1.2483,1.2539,1.2595,1.2667,1.2728,1.285,1.2887,1.2888,1.3067,1.3136,1.3251,1.3267,1.3307,1.333,1.3316,1.3389,1.3395,1.3401,1.3424,1.3433,1.3334,1.3334,1.3334,1.3335,0,1.2318,1.2397,1.2443,1.2558,1.2619,1.2694,1.2773,1.2827,1.2865,1.2923,1.3024,1.3109,1.321,1.3241,1.3279,1.3362,1.336,1.3374,1.3374,1.3404,1.3428,1.3438,1.3332,1.3333,1.3333,1.3333,0,0,1.2326,1.2479,1.2494,1.2548,1.2662,1.2726,1.2804,1.2902,1.2947,1.3029,1.3097,1.3216,1.323,1.329,1.3336,1.3383,1.343,1.3392,1.3395,1.3396,1.3528,1.3517,1.3526,1.3451,1.3453,1.3455,1.352,0,1.2379,1.252,1.2583,1.2696,1.2771,1.2826,1.2894,1.2972,1.3029,1.3102,1.3165,1.3248,1.3259,1.3296,1.3345,1.3414,1.3457,1.341,1.3516,1.3519,1.349,1.3538,1.3527,1.3584,1.3529,1.3531,1.3532,0,1.246,1.2542,1.2662,1.2768,1.2802,1.2862,1.2958,1.3027,1.3117,1.3155,1.3222,1.3267,1.3352,1.3346,1.3466,1.3432,1.3479,1.352,1.3524,1.3536,1.3527,1.3553,1.3604,1.3613,1.3547,1.3546,1.3545,0,1.2455,1.2595,1.2686,1.273,1.2856,1.2897,1.2952,1.3041,1.3097,1.3181,1.3218,1.331,1.3361,1.3433,1.3502,1.3491,1.3615,1.3615,1.365,1.3648,1.3674,1.3671,1.3734,1.3703,1.3703,1.3703,1.3703,0,1.2508,1.2579,1.2685,1.274,1.2823,1.2896,1.2975,1.3034,1.3113,1.3182,1.3235,1.3299,1.3386,1.3461,1.3516,1.3607,1.3629,1.3663,1.3677,1.3659,1.3655,1.3691,1.3689,1.3705,1.3705,1.3704,1.3704,0,1.2515,1.2589,1.2692,1.2803,1.2833,1.2889,1.2985,1.3041,1.3101,1.3187,1.3212,1.3305,1.3397,1.3473,1.3593,1.363,1.3724,1.374,1.3693,1.3701,1.3732,1.3728,1.3821,1.3837,1.3794,1.3795,1.3795,0,1.2544,1.2601,1.2718,1.2768,1.2822,1.2901,1.2958,1.3032,1.309,1.3198,1.3241,1.3336,1.3416,1.356,1.3639,1.3732,1.375,1.3776,1.3765,1.3745,1.3752,1.3748,1.3754,1.3777,1.3777,1.3777,1.3777,0,1.2588,1.2622,1.2701,1.2794,1.286,1.2937,1.3015,1.3053,1.3142,1.3204,1.3297,1.3359,1.3482,1.3576,1.3677,1.3735,1.3772,1.3781,1.3794,1.3776,1.3747,1.3764,1.3696,1.3778,1.3778,1.3778,1.3778,1.3778,1.2608,1.2661,1.2752,1.2839,1.2906,1.2978,1.3037,1.3104,1.3183,1.3288,1.3328,1.3424,1.3515,1.3654,1.3712,1.379,1.3794,1.3813,1.3818,1.3821,1.3819,1.3734,1.3808,1.3808,1.3808,1.3808,1.3809,0,1.2655,1.2716,1.2796,1.2903,1.2972,1.3,1.3089,1.3145,1.3228,1.3309,1.3387,1.3495,1.3587,1.3674,1.3771,1.3816,1.3835,1.3839,1.3836,1.3849,1.3809,1.3788,1.3821,1.3821,1.3821,1.3821,1.3821,1.3821,1.2687,1.2778,1.2823,1.2949,1.3011,1.3105,1.3153,1.322,1.3286,1.3404,1.348,1.3536,1.362,1.3724,1.3809,1.3833,1.3866,1.3865,1.3893,1.3854,1.3852,1.385,1.3831,1.3872,1.3872,1.3927,1.3927,1.3928]},{"header":{"parameterUnit":"m.s-1","parameterCategory":1,"la1":30.2991,"la2":30.254,"lo1":-89.0895,"lo2":-89.0444,"dy":0.0017,"dx":0.0017,"nx":28,"ny":28,"refTime":"2025-06-13T21:00:00:Z","depth":0,"parameterNumber":3,"parameterNumberName":"V-component_of_WINDS"},"data":[0,0,0,0,0,0,0,0,0,0,0,0,0,0,0,0,0,0,0,0,0,0,0,0,0,0,0,0,0,0,0,0,0,0,0,0,0,0,0,0,0,0,0,0,0,0,0,0,0,0,0,0,0,0,0,0,0,0,2.54,2.5402,0,2.5569,2.5571,2.5573,2.5615,2.5613,2.5612,2.5611,2.5788,2.5794,2.58,0,0,0,0,0,0,0,0,0,0,0,0,0,2.5119,2.5124,2.54,2.5402,2.5404,2.5569,2.5571,2.5574,2.5615,2.5613,2.5612,2.5611,2.5786,2.5793,2.58,0,0,0,0,0,0,0,0,0,0,0,0,0,2.526,2.5125,2.54,2.5445,2.545,2.5569,2.5571,2.5574,2.5615,2.5613,2.5612,2.561,2.5784,2.5792,2.5801,2.5888,0,0,2.5827,2.5831,0,0,0,0,0,0,0,0,2.5252,2.527,2.5436,2.5442,2.5448,2.5569,2.5537,2.568,2.5615,2.5553,2.5611,2.5609,2.5717,2.5731,2.5766,2.5896,2.5904,2.5828,2.5833,2.5837,2.5839,0,0,0,0,0,0,0,2.5242,2.5263,2.5467,2.5438,2.5446,2.5458,2.5476,2.5564,2.5642,2.5558,2.5561,2.5581,2.572,2.5758,2.5771,2.5906,2.5828,2.5836,2.5841,2.5844,2.612,2.6122,0,0,0,0,0,0,2.5224,2.5255,2.5462,2.5472,2.5344,2.5465,2.5485,2.5532,2.5641,2.5656,2.5582,2.5582,2.5744,2.5761,2.5777,2.5889,2.5837,2.5845,2.585,2.6118,2.612,2.6123,0,0,0,0,0,0,2.5217,2.5242,2.5455,2.5365,2.5393,2.5471,2.5524,2.5536,2.5574,2.5659,2.5674,2.5606,2.5743,2.5765,2.5861,2.5896,2.5849,2.5857,2.6115,2.6119,2.6122,2.6111,0,0,0,0,0,0,2.5209,2.5239,2.5271,2.5365,2.5397,2.5534,2.5526,2.5541,2.5589,2.559,2.5686,2.57,2.5744,2.5848,2.5869,2.5907,2.5864,2.6113,2.6117,2.6121,2.6109,2.6114,2.6118,0,0,0,0,0,2.5199,2.5262,2.5273,2.5298,2.5439,2.5536,2.5554,2.5602,2.5591,2.5626,2.5681,2.5697,2.5888,2.5857,2.5882,2.5922,2.6111,2.6116,2.612,2.6107,2.6113,2.6118,0,0,0,0,0,0,2.5172,2.5275,2.5288,2.5383,2.545,2.5542,2.5587,2.5606,2.5679,2.5678,2.5735,2.5757,2.5849,2.5895,2.5859,2.6014,2.5999,2.6009,2.5981,2.5987,2.5992,2.598,2.5871,0,0,0,0,0,2.5176,2.5244,2.5332,2.5407,2.544,2.5508,2.5551,2.5583,2.5655,2.5684,2.5746,2.5817,2.5894,2.5943,2.6017,2.6115,2.6139,2.6156,2.616,2.6164,2.6172,2.6231,2.6241,2.6139,2.6139,2.6138,0,0,2.5187,2.5252,2.5292,2.5403,2.5459,2.5531,2.5531,2.5606,2.5661,2.5696,2.579,2.5838,2.5922,2.602,2.6066,2.6061,2.6206,2.617,2.6172,2.6179,2.6237,2.6247,2.6256,2.6142,2.6141,2.6141,0,0,2.5244,2.5299,2.5369,2.5425,2.551,2.5554,2.5571,2.5661,2.5695,2.579,2.5819,2.5885,2.6014,2.6074,2.6121,2.6203,2.6222,2.6225,2.625,2.6307,2.6315,2.6322,2.6355,2.6365,2.6233,2.6233,2.6233,0,2.5248,2.5355,2.5403,2.5478,2.5528,2.5562,2.5635,2.5687,2.5792,2.5827,2.5819,2.5984,2.6042,2.6156,2.6177,2.6212,2.6236,2.6215,2.6309,2.6317,2.6325,2.6357,2.6369,2.6233,2.6233,2.6233,2.6233,0,2.5357,2.5432,2.5479,2.5579,2.5633,2.5707,2.5768,2.5818,2.5845,2.5891,2.599,2.6061,2.6152,2.6181,2.6208,2.63,2.6295,2.6297,2.6284,2.6334,2.6365,2.6378,2.6233,2.6233,2.6233,2.6233,0,0,2.5402,2.5528,2.5545,2.5592,2.5689,2.5748,2.5824,2.5913,2.5956,2.6028,2.6095,2.6205,2.6209,2.6262,2.6296,2.6345,2.641,2.6343,2.6346,2.6356,2.6521,2.652,2.6533,2.6423,2.6425,2.6427,2.6515,0,2.5473,2.5609,2.5656,2.5769,2.5841,2.5875,2.5942,2.601,2.6056,2.6125,2.6176,2.6254,2.6251,2.6284,2.6334,2.6391,2.6445,2.6385,2.6489,2.6492,2.647,2.6549,2.6548,2.6627,2.6527,2.6529,2.653,0,2.5575,2.5648,2.5768,2.5858,2.589,2.5949,2.6036,2.61,2.6179,2.6209,2.6269,2.63,2.6384,2.6364,2.6483,2.6441,2.6487,2.6521,2.6526,2.6539,2.6516,2.6567,2.6653,2.6666,2.6549,2.6548,2.6546,0,2.5599,2.5727,2.5817,2.5856,2.5962,2.6004,2.605,2.6127,2.6178,2.6254,2.6289,2.6373,2.6421,2.6487,2.6541,2.6521,2.6656,2.664,2.6686,2.6685,2.6715,2.6713,2.6812,2.6739,2.6739,2.6739,2.6738,0,2.5675,2.5749,2.583,2.5885,2.5969,2.6023,2.6105,2.6154,2.6223,2.629,2.6325,2.6388,2.6454,2.6527,2.6569,2.6663,2.6683,2.6712,2.6723,2.6711,2.6708,2.6743,2.674,2.6742,2.6741,2.6741,2.674,0,2.5717,2.5774,2.5875,2.5967,2.5993,2.6051,2.6132,2.6188,2.6236,2.6321,2.6344,2.642,2.6507,2.6567,2.6679,2.6708,2.6811,2.6819,2.6784,2.679,2.6834,2.683,2.6962,2.6984,2.6893,2.6894,2.6894,0,2.5763,2.5821,2.592,2.5967,2.6014,2.6089,2.6142,2.6197,2.6251,2.6346,2.6392,2.6482,2.6557,2.6695,2.6761,2.6848,2.6861,2.6902,2.6875,2.6862,2.6866,2.6863,2.6871,2.6906,2.6907,2.6908,2.6908,0,2.584,2.5866,2.594,2.6024,2.6086,2.6155,2.6225,2.6262,2.6331,2.639,2.6479,2.6537,2.6652,2.6742,2.6836,2.6886,2.6911,2.6916,2.6932,2.6921,2.69,2.6915,2.6798,2.6913,2.6913,2.6912,2.6912,2.6912,2.5888,2.5942,2.6021,2.6103,2.6161,2.6226,2.6285,2.634,2.6415,2.6512,2.6541,2.6635,2.6716,2.6844,2.6896,2.6972,2.6969,2.6991,2.6997,2.7003,2.7005,2.6885,2.6989,2.6989,2.6989,2.6989,2.6989,0,2.597,2.6022,2.6097,2.6194,2.6259,2.6274,2.6353,2.6407,2.6489,2.6561,2.6634,2.6739,2.6827,2.69,2.6992,2.7039,2.7053,2.7062,2.706,2.7073,2.7,2.6979,2.705,2.705,2.705,2.705,2.705,2.7049,2.602,2.6113,2.6148,2.6272,2.6325,2.6416,2.6461,2.6522,2.658,2.6695,2.6768,2.6815,2.6889,2.6987,2.7069,2.7089,2.7123,2.713,2.7152,2.7084,2.7077,2.7071,2.7051,2.7136,2.7136,2.7219,2.722,2.722]}]]